FW1788 Weather Reports


time (UTC)temp
C
wind
direction
speed
KPH
gust
KPH
rain 1hr
cm
rain 24hr
cm
rain mn
cm
humidity
%
barometer
mb
20260504081556 2 238 8.0 29.0 0.05 1.78 0.38 95 978.3
20260504044536 3 42 0.0 8.0 0.05 1.50 0.10 96 974.5
20260504043037 3 67 1.6 16.1 0.05 1.45 0.08 95 974.7
20260504041530 3 51 4.8 19.3 0.05 1.42 0.05 95 975.1
20260504040028 3 96 6.4 25.7 0.05 1.42 0.05 95 975.7
20260504034523 3 173 3.2 17.7 0.05 1.42 0.05 95 976.5
20260504033021 3 42 8.0 17.7 0.05 1.42 0.03 94 976.9
20260504031518 4 80 9.7 24.1 0.03 1.40 0.00 94 977.7
20260504030014 4 44 0.0 16.1 0.03 1.40 1.40 95 978.5
20260504024512 4 61 1.6 22.5 0.00 1.37 1.37 95 978.9
20260504023010 5 113 4.8 24.1 0.00 1.37 1.37 95 979.4
20260504021507 4 86 3.2 14.5 0.03 1.37 1.37 95 980.5
20260504020004 4 65 11.3 29.0 0.03 1.37 1.37 94 981.2
20260504014502 4 57 8.0 30.6 0.05 1.37 1.37 94 982.1
20260504013058 3 52 14.5 38.6 0.08 1.37 1.37 94 982.7
20260504011557 3 76 9.7 37.0 0.08 1.37 1.37 94 983.1
20260504010053 3 113 16.1 38.6 0.10 1.37 1.37 93 984.2
20260504004551 3 87 12.9 40.2 0.08 1.35 1.35 93 984.7
20260504003048 4 34 22.5 38.6 0.05 1.30 1.30 93 985.7
20260504001549 4 67 17.7 43.5 0.18 1.27 1.27 93 986.0
20260504000104 5 55 9.7 37.0 0.33 1.27 1.27 92 987.3
20260503234641 4 72 17.7 35.4 0.36 1.27 1.27 93 988.2
20260503233041 4 101 17.7 46.7 0.36 1.22 1.22 93 988.5
20260503231536 4 53 24.1 40.2 0.28 1.09 1.09 93 989.9
20260503230033 4 229 8.0 38.6 0.25 0.94 0.94 93 990.6
20260503224531 3 273 6.4 30.6 0.33 0.89 0.89 94 991.6
20260503223027 3 67 9.7 22.5 0.36 0.86 0.86 94 993.0
20260503221524 3 111 11.3 24.1 0.36 0.81 0.81 94 993.9
20260503220023 3 61 3.2 37.0 0.30 0.69 0.69 94 994.7
20260503214523 3 135 4.8 17.7 0.25 0.56 0.56 94 995.0
20260503213021 3 281 4.8 19.3 0.20 0.51 0.51 95 995.0
20260503211518 2 82 11.3 25.7 0.18 0.46 0.46 94 995.2
20260503210017 2 55 12.9 30.6 0.13 0.38 0.38 93 996.1
20260503204514 3 68 14.5 27.4 0.05 0.30 0.30 92 996.8
20260503203011 5 55 14.5 35.4 0.15 0.30 0.30 90 997.3
20260503201511 5 62 12.9 29.0 0.15 0.28 0.28 91 997.5
20260503200007 5 69 11.3 19.3 0.13 0.25 0.25 92 998.1
20260503194504 5 55 12.9 41.8 0.13 0.23 0.23 91 998.9
20260503193107 5 71 8.0 20.9 0.15 0.15 0.15 90 999.6
20260503191557 5 60 12.9 25.7 0.15 0.15 0.15 90 1000.7
20260503190057 5 75 11.3 24.1 0.15 0.15 0.15 89 1001.8
20260503184605 5 67 12.9 24.1 0.10 0.10 0.10 86 1003.3
20260503183051 6 55 8.0 38.6 0.00 0.00 0.00 80 1003.7
20260503181550 6 103 8.0 20.9 0.00 0.00 0.00 74 1004.5
20260503180042 7 50 6.4 20.9 0.00 0.00 0.00 73 1005.8
20260503174539 8 117 6.4 20.9 0.00 0.00 0.00 69 1006.2
20260503173038 8 55 4.8 12.9 0.00 0.00 0.00 67 1006.9
20260503171552 9 103 3.2 9.7 0.00 0.00 0.00 64 1007.7